Home > Weather > Einsiedeln > Past weeks

Flag for Switzerland Past Weather in Einsiedeln, Schwyz, Switzerland — Yesterday and Last 2 Weeks

Now
80 °F

Sunny.


Feels Like: 82 °F
Forecast: 61 / 79 °F
Wind: 3 mph from North

Location: Altdorf

Current Time: Aug 25, 2016 at 3:33:14 PM

Latest Report: Aug 25, 2016 at 2:00 PM


Visibility: 19 mi

Pressure: 30.02 "Hg (27.13 "Hg at 887m altitude)

Humidity: 57%

Dew Point: 64 °F

Location of EinsiedelnLocation

Past Weather in Einsiedeln — Graph

°F

Einsiedeln Temperature Yesterday

Maximum temperature yesterday: 80 °F (at 5:00 PM)
Minimum temperature yesterday: 55 °F (at 8:00 AM)
Average temperature yesterday: 66 °F

High & Low Weather Summary for the Past Weeks

 TemperatureHumidityPressure
High80 °F (Aug 16, 4:00 PM)99% (Aug 11, 5:00 AM)30.39 "Hg (Aug 11, 5:00 AM)
Low48 °F (Aug 11, 7:00 AM)49% (Aug 16, 5:00 PM)29.82 "Hg (Aug 18, 1:00 PM)
Average64 °F79%30.13 "Hg
* Reported Aug 10 2:00 PM — Aug 25 2:00 PM, Einsiedeln, Weather by CustomWeather, © 2016

Note: Actual official high and low records may vary slightly from our data, if they occured in-between our weather recording intervals... More about our weather records

Advertising

Einsiedeln Weather History for the Previous 24 Hours

Scroll right to see more
 ConditionsComfort  
Time TempWeatherWind HumidityBarometerVisibility
2:00 PM
Thu, Aug 25
80 °FSunny.3 mph57%30.02 "Hg19 mi
1:00 PM77 °FWarm.3 mph61%30.03 "HgN/A
12:00 PM74 °FMild.5 mph60%30.06 "HgN/A
11:00 AM74 °FSunny.5 mph69%30.06 "Hg19 mi
10:00 AM70 °FMild.3 mph61%30.09 "HgN/A
9:00 AM67 °FMild.3 mph78%30.11 "HgN/A
8:00 AM57 °FSunny.1 mph95%30.13 "Hg19 mi
7:00 AM59 °FCool.2 mph90%30.11 "HgN/A
6:00 AM60 °FCool.2 mph90%30.11 "HgN/A
5:00 AM59 °FClear.3 mph95%30.11 "Hg19 mi
4:00 AM60 °FCool.2 mph95%30.10 "HgN/A
3:00 AM60 °FCool.2 mph96%30.10 "HgN/A
2:00 AM61 °FClear.1 mph95%30.10 "Hg19 mi
1:00 AM62 °FCool.1 mph94%30.11 "HgN/A
12:00 AM65 °FMild.2 mph88%30.10 "HgN/A
11:00 PM
Wed, Aug 24
67 °FClear.1 mph84%30.11 "Hg19 mi
10:00 PM66 °FMild.2 mph87%30.13 "HgN/A
9:00 PM68 °FMild.2 mph84%30.11 "HgN/A
8:00 PM71 °FSunny.1 mph79%30.09 "Hg19 mi
7:00 PM71 °FMild.1 mph83%30.09 "HgN/A
6:00 PM75 °FMild.2 mph69%30.09 "HgN/A
5:00 PM80 °FSunny.3 mph60%30.09 "Hg19 mi
4:00 PM79 °FWarm.5 mph59%30.10 "HgN/A
3:00 PM76 °FMild.5 mph59%30.12 "HgN/A
Weather by CustomWeather, © 2016

See weather overviewHow to use our weather pages